CW2444 Weather Reports


Display with metric or nautical units.
time (UTC)temp
F
wind
direction
speed
MPH
gust
MPH
rain 1hr
in
rain 24hr
in
rain mn
in
humidity
%
barometer
mb
20181216133447 39 248 0.0 0.0 0.00 0.00 0.00 100 1013.7
20181216132438 39 248 0.0 0.0 0.00 0.00 0.00 100 1014.0
20181216131437 39 248 0.0 0.0 0.00 0.00 0.00 100 1013.8
20181216130437 39 248 0.0 0.0 0.00 0.00 0.00 100 1013.9
20181216125428 39 248 0.0 0.0 0.00 0.00 0.00 100 1014.0
20181216124429 38 243 0.0 0.0 0.00 0.00 0.00 100 1014.0
20181216123452 38 243 0.0 0.0 0.00 0.00 0.00 100 1013.9
20181216122441 38 243 0.0 0.0 0.00 0.00 0.00 100 1014.1
20181216121440 38 244 0.0 0.0 0.00 0.00 0.00 100 1014.3
20181216120446 39 262 0.0 0.0 0.00 0.00 0.00 100 1014.1
20181216115437 39 262 0.0 0.0 0.00 0.00 0.00 99 1013.9
20181216114436 39 267 0.0 0.0 0.00 0.00 0.00 95 1014.0
20181216113436 39 243 0.0 0.0 0.00 0.00 0.00 92 1014.4
20181216112426 39 243 0.0 0.0 0.00 0.00 0.00 90 1014.5
20181216111428 39 243 0.0 0.0 0.00 0.00 0.00 88 1015.0
20181216110451 40 243 0.0 0.0 0.00 0.00 0.00 85 1015.1
20181216105440 40 244 0.0 0.0 0.00 0.00 0.00 86 1015.0
20181216104438 40 245 0.0 0.0 0.00 0.00 0.00 88 1015.3
20181216103442 40 242 0.0 0.0 0.00 0.00 0.00 86 1015.1
20181216102431 40 242 0.0 0.0 0.00 0.00 0.00 88 1014.8
20181216101431 40 242 0.0 0.0 0.00 0.00 0.00 89 1014.7
20181216100452 40 242 0.0 0.0 0.00 0.00 0.00 91 1014.6
20181216095442 40 242 0.0 0.0 0.00 0.00 0.00 95 1014.5
20181216094426 39 242 0.0 0.0 0.00 0.00 0.00 98 1014.3
20181216093447 39 242 0.0 0.0 0.00 0.00 0.00 100 1014.3
20181216092439 39 242 0.0 0.0 0.00 0.00 0.00 100 1014.2
20181216091439 38 242 0.0 0.0 0.00 0.00 0.00 100 1014.5
20181216090443 38 242 0.0 0.0 0.00 0.00 0.00 96 1014.6
20181216085432 39 242 0.0 0.0 0.00 0.00 0.00 95 1014.5
20181216084429 39 242 0.0 0.0 0.00 0.00 0.00 94 1014.5
20181216083450 39 242 0.0 0.0 0.00 0.00 0.00 92 1014.6
20181216082438 39 242 0.0 0.0 0.00 0.00 0.00 89 1015.0
20181216081441 39 242 0.0 0.0 0.00 0.00 0.00 88 1014.8
20181216080441 40 242 0.0 0.0 0.00 0.00 0.00 87 1014.9
20181216075431 40 242 0.0 0.0 0.00 0.00 0.00 86 1015.0
20181216074430 40 242 0.0 0.0 0.00 0.00 0.00 85 1015.1
20181216073435 40 242 0.0 0.0 0.00 0.00 0.00 84 1015.2
20181216072425 40 243 0.0 0.0 0.00 0.00 0.00 84 1015.1
20181216071444 40 243 0.0 0.0 0.00 0.00 0.00 85 1015.5
20181216070443 40 243 0.0 0.0 0.00 0.00 0.00 88 1015.8
20181216065431 40 243 0.0 0.0 0.00 0.00 0.00 90 1015.6
20181216064433 40 242 0.0 0.0 0.00 0.00 0.00 90 1015.7
20181216063435 39 242 0.0 0.0 0.00 0.00 0.00 89 1015.6
20181216062424 39 243 0.0 0.0 0.00 0.00 0.00 88 1015.5
20181216061423 39 242 0.0 0.0 0.00 0.00 0.00 84 1015.5
20181216060446 40 243 0.0 0.0 0.00 0.00 0.00 81 1015.6
20181216055439 40 243 0.0 0.0 0.00 0.00 0.00 80 1015.4
20181216054439 40 243 0.0 0.0 0.00 0.00 0.00 80 1015.4
20181216053437 40 243 0.0 0.0 0.00 0.00 0.00 81 1015.4
20181216052429 40 243 0.0 0.0 0.00 0.00 0.00 82 1015.5
20181216051433 40 242 0.0 0.0 0.00 0.00 0.00 83 1015.4
20181216050454 40 242 0.0 0.0 0.00 0.00 0.00 81 1015.5
20181216045443 40 244 0.0 0.0 0.00 0.00 0.00 81 1015.3
20181216044439 40 243 0.0 0.0 0.00 0.00 0.00 82 1015.4
20181216043440 40 243 0.0 0.0 0.00 0.00 0.00 85 1015.5
20181216042433 39 242 0.0 0.0 0.00 0.00 0.00 90 1015.4
20181216041433 39 243 0.0 0.0 0.00 0.00 0.00 90 1015.5
20181216040435 39 243 0.0 0.0 0.00 0.00 0.00 89 1015.6
20181216035445 39 243 0.0 0.0 0.00 0.00 0.00 87 1015.6
20181216034426 39 244 0.0 0.0 0.00 0.00 0.00 90 1015.6
20181216033447 39 243 0.0 0.0 0.00 0.00 0.00 96 1015.8
20181216032436 38 244 0.0 0.0 0.00 0.00 0.00 100 1015.9
20181216031437 36 244 0.0 0.0 0.00 0.00 0.00 97 1015.9
20181216030438 36 244 0.0 0.0 0.00 0.00 0.00 97 1015.8
20181216025432 36 243 0.0 0.0 0.00 0.00 0.00 94 1015.4
20181216024431 36 243 0.0 0.0 0.00 0.00 0.00 90 1015.7
20181216023451 36 243 0.0 0.0 0.00 0.00 0.00 88 1015.6
20181216022442 36 242 0.0 0.0 0.00 0.00 0.00 83 1015.4
20181216021424 36 242 0.0 0.0 0.00 0.00 0.00 79 1015.0
20181216020446 36 244 0.0 0.0 0.00 0.00 0.00 73 1015.0
20181216015435 37 244 0.0 0.0 0.00 0.00 0.00 74 1015.2
20181216014434 38 245 0.0 0.0 0.00 0.00 0.00 73 1015.0
20181216013453 39 245 0.0 0.0 0.00 0.00 0.00 70 1015.2
20181216012426 40 247 0.0 0.0 0.00 0.00 0.00 68 1015.5
20181216011425 41 247 0.0 0.0 0.00 0.00 0.00 69 1015.4
20181216010447 40 247 0.0 0.0 0.00 0.00 0.00 70 1015.7
20181216005437 40 243 0.0 0.0 0.00 0.00 0.00 67 1016.1
20181216004443 41 243 0.0 0.0 0.00 0.00 0.00 65 1016.1
20181216003443 41 243 0.0 0.0 0.00 0.00 0.00 64 1015.9
20181216002433 42 245 0.0 0.0 0.00 0.00 0.00 62 1016.1
20181216001431 43 243 0.0 0.0 0.00 0.00 0.00 60 1016.5
20181216000454 45 246 0.0 0.0 0.00 0.00 0.00 59 1016.5
20181215235426 45 246 0.0 0.0 0.00 0.00 0.00 59 1016.2
20181215234443 46 245 0.0 0.0 0.00 0.00 0.00 56 1016.3
20181215233443 47 245 0.0 0.0 0.00 0.00 0.00 55 1016.1
20181215232430 49 244 0.0 0.0 0.00 0.00 0.00 53 1016.2
20181215231434 50 244 0.0 0.0 0.00 0.00 0.00 50 1016.4
20181215230454 50 248 0.0 0.0 0.00 0.00 0.00 49 1016.4
20181215225444 50 248 0.0 0.0 0.00 0.00 0.00 51 1016.4
20181215224443 50 247 0.0 0.0 0.00 0.00 0.00 48 1016.2
20181215223444 50 246 0.0 0.0 0.00 0.00 0.00 48 1016.1
20181215222436 50 249 0.0 0.0 0.00 0.00 0.00 50 1015.8
20181215221435 50 250 0.0 0.0 0.00 0.00 0.00 48 1016.0
20181215220435 51 251 0.0 0.0 0.00 0.00 0.00 48 1016.3
20181215215445 51 249 0.0 0.0 0.00 0.00 0.00 48 1016.3
20181215214427 50 252 3.0 0.0 0.00 0.00 0.00 51 1016.1
20181215213447 50 247 1.0 0.0 0.00 0.00 0.00 51 1016.3
20181215212436 50 254 0.0 0.0 0.00 0.00 0.00 51 1016.7
20181215211433 50 246 5.0 0.0 0.00 0.00 0.00 50 1017.0
20181215210434 50 248 0.0 0.0 0.00 0.00 0.00 50 1017.5
20181215205428 50 246 2.0 0.0 0.00 0.00 0.00 50 1017.9
20181215204427 50 246 2.0 0.0 0.00 0.00 0.00 47 1018.2
20181215203448 50 260 2.0 0.0 0.00 0.00 0.00 48 1018.4
20181215202434 51 246 0.0 0.0 0.00 0.00 0.00 48 1018.7
20181215201432 50 250 4.0 0.0 0.00 0.00 0.00 49 1018.6
20181215200437 50 249 1.0 0.0 0.00 0.00 0.00 50 1018.8
20181215195426 51 246 0.0 0.0 0.00 0.00 0.00 49 1018.7
20181215194425 51 248 0.0 0.0 0.00 0.00 0.00 49 1018.8
20181215193447 52 247 0.0 0.0 0.00 0.00 0.00 50 1018.9
20181215192438 51 243 0.0 0.0 0.00 0.00 0.00 51 1019.2
20181215191436 51 244 0.0 0.0 0.00 0.00 0.00 53 1019.5
20181215190437 51 247 0.0 0.0 0.00 0.00 0.00 54 1019.5
20181215185427 50 246 0.0 0.0 0.00 0.00 0.00 52 1019.6
20181215184426 49 246 0.0 0.0 0.00 0.00 0.00 52 1019.6
20181215183432 49 246 0.0 0.0 0.00 0.00 0.00 53 1019.7
20181215182444 50 245 0.0 0.0 0.00 0.00 0.00 54 1020.2
20181215181443 50 245 0.0 0.0 0.00 0.00 0.00 54 1020.1
20181215180444 48 250 0.0 0.0 0.00 0.00 0.00 57 1020.3
20181215175436 46 250 0.0 0.0 0.00 0.00 0.00 63 1020.4
20181215174437 45 245 0.0 0.0 0.00 0.00 0.00 64 1020.6
20181215173440 44 243 0.0 0.0 0.00 0.00 0.00 63 1020.6
20181215172429 43 244 0.0 0.0 0.00 0.00 0.00 63 1020.5
20181215171428 42 245 0.0 0.0 0.00 0.00 0.00 63 1020.3
20181215170453 41 248 0.0 0.0 0.00 0.00 0.00 66 1020.0
20181215165443 39 247 0.0 0.0 0.00 0.00 0.00 73 1020.1
20181215164442 37 245 0.0 0.0 0.00 0.00 0.00 73 1020.1
20181215163444 35 243 0.0 0.0 0.00 0.00 0.00 68 1020.7
20181215162436 36 243 0.0 0.0 0.00 0.00 0.00 66 1020.8
20181215161435 36 243 0.0 0.0 0.00 0.00 0.00 66 1020.6
20181215160436 37 243 0.0 0.0 0.00 0.00 0.00 65 1020.6
20181215155426 37 243 0.0 0.0 0.00 0.00 0.00 65 1020.8
20181215154444 37 245 0.0 0.0 0.00 0.00 0.00 65 1021.0
20181215153449 37 249 0.0 0.0 0.00 0.00 0.00 64 1020.9
20181215152439 37 248 0.0 0.0 0.00 0.00 0.00 63 1020.7
20181215151439 38 249 0.0 0.0 0.00 0.00 0.00 63 1020.8
20181215150438 38 250 0.0 0.0 0.00 0.00 0.00 63 1020.7
20181215145431 38 248 0.0 0.0 0.00 0.00 0.00 63 1020.6
20181215144431 38 242 0.0 0.0 0.00 0.00 0.00 63 1020.6
20181215143451 38 242 0.0 0.0 0.00 0.00 0.00 65 1020.4
20181215142441 37 242 0.0 0.0 0.00 0.00 0.00 63 1020.3
20181215141439 38 242 5.0 0.0 0.00 0.00 0.00 63 1020.4
20181215140443 38 254 0.0 0.0 0.00 0.00 0.00 62 1020.3
20181215135432 39 246 0.0 0.0 0.00 0.00 0.00 62 1020.3
20181215134430 38 246 4.0 0.0 0.00 0.00 0.00 63 1020.3